Time,TemperatureF,DewpointF,PressureIn,WindDirection,WindDirectionDegrees,WindSpeedMPH,WindSpeedGustMPH,Humidity,HourlyPrecipIn,Conditions,Clouds,dailyrainin,SoftwareType,DateUTC
2013-06-02 00:01:00,74.4,67.8,29.97,SW,232,2.0,4.0,80,0.00,,,0.00,Wunderground v.1.15,2013-06-02 04:01:00,
2013-06-02 00:10:00,74.3,67.7,29.97,SSE,150,1.0,1.0,80,0.00,,,0.00,Wunderground v.1.15,2013-06-02 04:10:00,
2013-06-02 00:20:00,74.3,68.1,29.97,North,355,2.0,2.0,81,0.00,,,0.00,Wunderground v.1.15,2013-06-02 04:20:00,
2013-06-02 00:30:00,74.5,68.3,29.96,SW,231,2.0,2.0,81,0.00,,,0.00,Wunderground v.1.15,2013-06-02 04:30:00,
2013-06-02 00:40:00,74.4,68.2,29.96,West,266,1.0,1.0,81,0.00,,,0.00,Wunderground v.1.15,2013-06-02 04:40:00,
2013-06-02 00:50:00,74.6,68.4,29.96,SW,214,2.0,2.0,81,0.00,,,0.00,Wunderground v.1.15,2013-06-02 04:50:00,
2013-06-02 01:01:00,74.6,68.4,29.96,South,177,1.0,1.0,81,0.00,,,0.00,Wunderground v.1.15,2013-06-02 05:01:00,
2013-06-02 01:10:00,74.4,68.2,29.95,WNW,290,1.0,1.0,81,0.00,,,0.00,Wunderground v.1.15,2013-06-02 05:10:00,
2013-06-02 01:20:00,74.5,68.3,29.95,West,278,2.0,2.0,81,0.00,,,0.00,Wunderground v.1.15,2013-06-02 05:20:00,
2013-06-02 01:30:00,74.6,68.4,29.95,NNW,329,2.0,3.0,81,0.00,,,0.00,Wunderground v.1.15,2013-06-02 05:30:00,
2013-06-02 01:40:00,74.6,68.4,29.95,WSW,251,2.0,4.0,81,0.00,,,0.00,Wunderground v.1.15,2013-06-02 05:40:00,
2013-06-02 01:50:00,74.6,68.4,29.94,SW,219,2.0,2.0,81,0.00,,,0.00,Wunderground v.1.15,2013-06-02 05:50:00,
2013-06-02 02:01:00,74.5,68.3,29.94,SSE,163,2.0,2.0,81,0.00,,,0.00,Wunderground v.1.15,2013-06-02 06:01:00,
2013-06-02 02:10:00,74.3,68.4,29.94,WSW,239,1.0,1.0,82,0.00,,,0.00,Wunderground v.1.15,2013-06-02 06:10:00,
2013-06-02 02:20:00,74.2,68.3,29.94,East,84,2.0,11.0,82,0.00,,,0.00,Wunderground v.1.15,2013-06-02 06:20:00,
2013-06-02 02:30:00,74.1,68.3,29.94,SW,233,2.0,2.0,82,0.00,,,0.00,Wunderground v.1.15,2013-06-02 06:30:00,
2013-06-02 02:40:00,73.9,68.1,29.94,WSW,247,1.0,1.0,82,0.00,,,0.00,Wunderground v.1.15,2013-06-02 06:40:00,
2013-06-02 02:50:00,73.8,68.3,29.94,ENE,75,1.0,1.0,83,0.00,,,0.00,Wunderground v.1.15,2013-06-02 06:50:00,
2013-06-02 03:01:00,73.6,68.1,29.94,WNW,297,1.0,2.0,83,0.00,,,0.00,Wunderground v.1.15,2013-06-02 07:01:00,
2013-06-02 03:10:00,73.5,68.0,29.94,SSE,153,1.0,1.0,83,0.00,,,0.00,Wunderground v.1.15,2013-06-02 07:10:00,
2013-06-02 03:20:00,73.3,68.2,29.94,South,186,1.0,1.0,84,0.00,,,0.00,Wunderground v.1.15,2013-06-02 07:20:00,
2013-06-02 03:30:00,73.2,68.1,29.93,SE,134,1.0,1.0,84,0.00,,,0.00,Wunderground v.1.15,2013-06-02 07:30:00,
2013-06-02 03:40:00,72.9,68.1,29.93,ESE,123,1.0,1.0,85,0.00,,,0.00,Wunderground v.1.15,2013-06-02 07:40:00,
2013-06-02 03:50:00,72.9,68.1,29.93,SW,218,2.0,2.0,85,0.00,,,0.00,Wunderground v.1.15,2013-06-02 07:50:00,
2013-06-02 04:01:00,72.7,67.9,29.93,SSW,210,1.0,2.0,85,0.00,,,0.00,Wunderground v.1.15,2013-06-02 08:01:00,
2013-06-02 04:10:00,72.6,67.8,29.93,WSW,243,1.0,1.0,85,0.00,,,0.00,Wunderground v.1.15,2013-06-02 08:10:00,
2013-06-02 04:20:00,72.6,67.8,29.93,WNW,283,1.0,1.0,85,0.00,,,0.00,Wunderground v.1.15,2013-06-02 08:20:00,
2013-06-02 04:30:00,72.4,68.0,29.93,WSW,257,1.0,1.0,86,0.00,,,0.00,Wunderground v.1.15,2013-06-02 08:30:00,
2013-06-02 04:40:00,72.2,67.8,29.92,East,96,1.0,1.0,86,0.00,,,0.00,Wunderground v.1.15,2013-06-02 08:40:00,
2013-06-02 04:50:00,72.1,67.7,29.92,WSW,252,1.0,3.0,86,0.00,,,0.00,Wunderground v.1.15,2013-06-02 08:50:00,
2013-06-02 05:01:00,72.1,67.7,29.92,SW,233,1.0,1.0,86,0.00,,,0.00,Wunderground v.1.15,2013-06-02 09:01:00,
2013-06-02 05:10:00,71.9,67.5,29.92,ESE,111,1.0,1.0,86,0.00,,,0.00,Wunderground v.1.15,2013-06-02 09:10:00,
2013-06-02 05:20:00,71.9,67.5,29.92,WSW,245,1.0,1.0,86,0.00,,,0.00,Wunderground v.1.15,2013-06-02 09:20:00,
2013-06-02 05:30:00,71.6,67.2,29.92,WNW,288,0.0,0.0,86,0.00,,,0.00,Wunderground v.1.15,2013-06-02 09:30:00,
2013-06-02 05:40:00,71.4,67.3,29.92,SE,126,1.0,3.0,87,0.00,,,0.00,Wunderground v.1.15,2013-06-02 09:40:00,
2013-06-02 05:50:00,71.5,67.4,29.93,SW,220,1.0,3.0,87,0.00,,,0.00,Wunderground v.1.15,2013-06-02 09:50:00,
2013-06-02 06:01:00,71.4,67.3,29.93,South,175,1.0,1.0,87,0.00,,,0.00,Wunderground v.1.15,2013-06-02 10:01:00,
2013-06-02 06:10:00,71.5,67.4,29.93,WNW,283,1.0,1.0,87,0.00,,,0.00,Wunderground v.1.15,2013-06-02 10:10:00,
2013-06-02 06:20:00,71.7,67.3,29.93,NNW,328,1.0,1.0,86,0.00,,,0.00,Wunderground v.1.15,2013-06-02 10:20:00,
2013-06-02 06:30:00,72.6,67.5,29.93,WSW,255,1.0,2.0,84,0.00,,,0.00,Wunderground v.1.15,2013-06-02 10:30:00,
2013-06-02 06:40:00,73.3,67.8,29.93,ESE,117,1.0,1.0,83,0.00,,,0.00,Wunderground v.1.15,2013-06-02 10:40:00,
2013-06-02 06:50:00,73.7,67.9,29.93,SE,137,1.0,1.0,82,0.00,,,0.00,Wunderground v.1.15,2013-06-02 10:50:00,
2013-06-02 07:01:00,74.2,68.0,29.93,SSE,152,2.0,2.0,81,0.00,,,0.00,Wunderground v.1.15,2013-06-02 11:01:00,
2013-06-02 07:10:00,74.7,67.8,29.93,WSW,254,2.0,2.0,79,0.00,,,0.00,Wunderground v.1.15,2013-06-02 11:10:00,
2013-06-02 07:20:00,75.3,68.0,29.93,West,271,2.0,2.0,78,0.00,,,0.00,Wunderground v.1.15,2013-06-02 11:20:00,
2013-06-02 07:30:00,76.0,68.3,29.93,ENE,58,2.0,2.0,77,0.00,,,0.00,Wunderground v.1.15,2013-06-02 11:30:00,
2013-06-02 07:40:00,76.6,68.1,29.92,SW,228,2.0,2.0,75,0.00,,,0.00,Wunderground v.1.15,2013-06-02 11:40:00,
2013-06-02 07:50:00,77.2,68.3,29.93,West,274,2.0,2.0,74,0.00,,,0.00,Wunderground v.1.15,2013-06-02 11:50:00,
2013-06-02 08:01:00,77.6,68.3,29.93,SW,232,3.0,3.0,73,0.00,,,0.00,Wunderground v.1.15,2013-06-02 12:01:00,
2013-06-02 08:10:00,78.1,68.3,29.93,SSW,194,3.0,3.0,72,0.00,,,0.00,Wunderground v.1.15,2013-06-02 12:10:00,
2013-06-02 08:20:00,78.8,68.6,29.93,WNW,284,2.0,2.0,71,0.00,,,0.00,Wunderground v.1.15,2013-06-02 12:20:00,
2013-06-02 08:30:00,79.4,68.3,29.93,SW,231,3.0,3.0,69,0.00,,,0.00,Wunderground v.1.15,2013-06-02 12:30:00,
2013-06-02 08:40:00,79.9,68.4,29.93,South,179,3.0,3.0,68,0.00,,,0.00,Wunderground v.1.15,2013-06-02 12:40:00,
2013-06-02 08:50:00,80.3,68.3,29.92,West,276,4.0,4.0,67,0.00,,,0.00,Wunderground v.1.15,2013-06-02 12:50:00,
2013-06-02 09:01:00,81.1,68.2,29.92,WSW,246,4.0,4.0,65,0.00,,,0.00,Wunderground v.1.15,2013-06-02 13:01:00,
2013-06-02 09:10:00,81.8,68.4,29.92,WSW,239,3.0,3.0,64,0.00,,,0.00,Wunderground v.1.15,2013-06-02 13:10:00,
2013-06-02 09:20:00,82.2,67.9,29.91,SSE,161,3.0,3.0,62,0.00,,,0.00,Wunderground v.1.15,2013-06-02 13:20:00,
2013-06-02 09:30:00,82.6,68.7,29.91,West,271,3.0,3.0,63,0.00,,,0.00,Wunderground v.1.15,2013-06-02 13:30:00,
2013-06-02 09:40:00,83.1,68.3,29.91,South,176,3.0,6.0,61,0.00,,,0.00,Wunderground v.1.15,2013-06-02 13:40:00,
2013-06-02 09:50:00,83.5,68.6,29.91,SSE,158,4.0,4.0,61,0.00,,,0.00,Wunderground v.1.15,2013-06-02 13:50:00,
2013-06-02 10:01:00,84.0,68.1,29.91,WSW,245,3.0,3.0,59,0.00,,,0.00,Wunderground v.1.15,2013-06-02 14:01:00,
2013-06-02 10:10:00,83.9,67.5,29.91,NW,320,4.0,5.0,58,0.00,,,0.00,Wunderground v.1.15,2013-06-02 14:10:00,
2013-06-02 10:20:00,84.4,68.0,29.91,ESE,122,3.0,4.0,58,0.00,,,0.00,Wunderground v.1.15,2013-06-02 14:20:00,
2013-06-02 10:30:00,85.1,69.2,29.90,South,183,3.0,3.0,59,0.00,,,0.00,Wunderground v.1.15,2013-06-02 14:30:00,
2013-06-02 10:40:00,85.9,68.4,29.91,West,266,3.0,3.0,56,0.00,,,0.00,Wunderground v.1.15,2013-06-02 14:40:00,
2013-06-02 10:50:00,86.6,68.5,29.90,West,264,3.0,3.0,55,0.00,,,0.00,Wunderground v.1.15,2013-06-02 14:50:00,
2013-06-02 11:01:00,86.8,68.7,29.90,East,82,3.0,10.0,55,0.00,,,0.00,Wunderground v.1.15,2013-06-02 15:01:00,
2013-06-02 11:10:00,87.5,70.4,29.90,SE,143,3.0,4.0,57,0.00,,,0.00,Wunderground v.1.15,2013-06-02 15:10:00,
2013-06-02 11:20:00,87.3,68.1,29.90,WSW,249,3.0,4.0,53,0.00,,,0.00,Wunderground v.1.15,2013-06-02 15:20:00,
2013-06-02 11:30:00,87.5,68.8,29.90,WNW,302,4.0,4.0,54,0.00,,,0.00,Wunderground v.1.15,2013-06-02 15:30:00,
2013-06-02 11:40:00,88.1,67.7,29.90,West,264,3.0,3.0,51,0.00,,,0.00,Wunderground v.1.15,2013-06-02 15:40:00,
2013-06-02 11:50:00,88.4,67.4,29.90,WSW,249,3.0,3.0,50,0.00,,,0.00,Wunderground v.1.15,2013-06-02 15:50:00,
2013-06-02 12:01:00,88.8,67.2,29.90,WNW,284,3.0,4.0,49,0.00,,,0.00,Wunderground v.1.15,2013-06-02 16:01:00,
2013-06-02 12:10:00,88.4,66.8,29.90,WSW,251,5.0,10.0,49,0.00,,,0.00,Wunderground v.1.15,2013-06-02 16:10:00,
2013-06-02 12:20:00,88.6,68.2,29.90,WNW,296,5.0,5.0,51,0.00,,,0.00,Wunderground v.1.15,2013-06-02 16:20:00,
2013-06-02 12:30:00,88.3,67.3,29.89,WSW,252,5.0,5.0,50,0.00,,,0.00,Wunderground v.1.15,2013-06-02 16:30:00,
2013-06-02 12:40:00,88.3,67.3,29.89,SSE,148,3.0,3.0,50,0.00,,,0.00,Wunderground v.1.15,2013-06-02 16:40:00,
2013-06-02 12:50:00,88.8,67.8,29.89,WSW,240,4.0,7.0,50,0.00,,,0.00,Wunderground v.1.15,2013-06-02 16:50:00,
2013-06-02 13:01:00,88.8,67.8,29.89,West,274,5.0,8.0,50,0.00,,,0.00,Wunderground v.1.15,2013-06-02 17:01:00,
2013-06-02 13:10:00,89.2,67.5,29.89,WSW,239,4.0,9.0,49,0.00,,,0.00,Wunderground v.1.15,2013-06-02 17:10:00,
2013-06-02 13:20:00,88.9,67.3,29.89,South,179,5.0,5.0,49,0.00,,,0.00,Wunderground v.1.15,2013-06-02 17:20:00,
2013-06-02 13:30:00,89.3,67.6,29.88,West,265,5.0,5.0,49,0.00,,,0.00,Wunderground v.1.15,2013-06-02 17:30:00,
2013-06-02 13:40:00,89.0,67.4,29.88,West,264,5.0,5.0,49,0.00,,,0.00,Wunderground v.1.15,2013-06-02 17:40:00,
2013-06-02 13:50:00,89.1,67.5,29.88,SW,230,4.0,6.0,49,0.00,,,0.00,Wunderground v.1.15,2013-06-02 17:50:00,
2013-06-02 14:01:00,89.7,69.2,29.88,SW,232,3.0,4.0,51,0.00,,,0.00,Wunderground v.1.15,2013-06-02 18:01:00,
2013-06-02 14:10:00,89.0,67.4,29.88,WSW,245,4.0,6.0,49,0.00,,,0.00,Wunderground v.1.15,2013-06-02 18:10:00,
2013-06-02 14:20:00,88.6,67.0,29.88,WSW,251,5.0,7.0,49,0.00,,,0.00,Wunderground v.1.15,2013-06-02 18:20:00,
2013-06-02 14:30:00,88.1,68.3,29.88,SSE,151,3.0,3.0,52,0.00,,,0.00,Wunderground v.1.15,2013-06-02 18:30:00,
2013-06-02 14:40:00,88.3,69.0,29.88,West,271,2.0,3.0,53,0.00,,,0.00,Wunderground v.1.15,2013-06-02 18:40:00,
2013-06-02 14:50:00,89.0,69.1,29.87,North,4,4.0,4.0,52,0.00,,,0.00,Wunderground v.1.15,2013-06-02 18:50:00,
2013-06-02 15:01:00,89.6,68.5,29.87,ESE,116,4.0,6.0,50,0.00,,,0.00,Wunderground v.1.15,2013-06-02 19:01:00,
2013-06-02 15:10:00,89.5,69.0,29.86,SSW,211,3.0,3.0,51,0.00,,,0.00,Wunderground v.1.15,2013-06-02 19:10:00,
2013-06-02 15:20:00,89.7,67.4,29.87,West,270,3.0,3.0,48,0.00,,,0.00,Wunderground v.1.15,2013-06-02 19:20:00,
2013-06-02 15:30:00,89.7,68.0,29.87,SW,231,3.0,3.0,49,0.00,,,0.00,Wunderground v.1.15,2013-06-02 19:30:00,
2013-06-02 15:40:00,89.3,68.2,29.86,WSW,244,3.0,3.0,50,0.00,,,0.00,Wunderground v.1.15,2013-06-02 19:40:00,
2013-06-02 15:50:00,87.5,67.7,29.86,West,271,4.0,8.0,52,0.00,,,0.00,Wunderground v.1.15,2013-06-02 19:50:00,
2013-06-02 16:01:00,87.9,68.1,29.86,East,89,2.0,13.0,52,0.00,,,0.00,Wunderground v.1.15,2013-06-02 20:01:00,
2013-06-02 16:10:00,88.7,68.2,29.86,West,262,3.0,5.0,51,0.00,,,0.00,Wunderground v.1.15,2013-06-02 20:10:00,
2013-06-02 16:20:00,89.2,68.7,29.86,WSW,240,3.0,4.0,51,0.00,,,0.00,Wunderground v.1.15,2013-06-02 20:20:00,
2013-06-02 16:30:00,88.2,67.8,29.86,East,96,4.0,4.0,51,0.00,,,0.00,Wunderground v.1.15,2013-06-02 20:30:00,
2013-06-02 16:40:00,87.2,67.4,29.86,SSW,206,3.0,3.0,52,0.00,,,0.00,Wunderground v.1.15,2013-06-02 20:40:00,
2013-06-02 16:50:00,87.0,67.2,29.86,SE,141,4.0,4.0,52,0.00,,,0.00,Wunderground v.1.15,2013-06-02 20:50:00,
2013-06-02 17:01:00,86.8,67.6,29.85,West,275,3.0,3.0,53,0.00,,,0.00,Wunderground v.1.15,2013-06-02 21:01:00,
2013-06-02 17:10:00,87.5,67.1,29.85,West,281,2.0,4.0,51,0.00,,,0.00,Wunderground v.1.15,2013-06-02 21:10:00,
2013-06-02 17:20:00,87.8,66.8,29.85,WSW,257,3.0,3.0,50,0.00,,,0.00,Wunderground v.1.15,2013-06-02 21:20:00,
2013-06-02 17:30:00,87.8,66.8,29.85,West,260,2.0,4.0,50,0.00,,,0.00,Wunderground v.1.15,2013-06-02 21:30:00,
2013-06-02 17:40:00,86.7,67.5,29.85,WSW,258,2.0,2.0,53,0.00,,,0.00,Wunderground v.1.15,2013-06-02 21:40:00,
2013-06-02 17:50:00,85.5,66.4,29.85,West,276,2.0,2.0,53,0.00,,,0.00,Wunderground v.1.15,2013-06-02 21:50:00,
2013-06-02 18:01:00,84.6,65.6,29.85,ESE,108,3.0,4.0,53,0.00,,,0.00,Wunderground v.1.15,2013-06-02 22:01:00,
2013-06-02 18:10:00,84.1,65.7,29.84,West,275,3.0,3.0,54,0.00,,,0.00,Wunderground v.1.15,2013-06-02 22:10:00,
2013-06-02 18:20:00,84.0,66.1,29.85,NE,53,2.0,2.0,55,0.00,,,0.00,Wunderground v.1.15,2013-06-02 22:20:00,
2013-06-02 18:30:00,84.1,66.7,29.85,SW,228,2.0,2.0,56,0.00,,,0.00,Wunderground v.1.15,2013-06-02 22:30:00,
2013-06-02 18:40:00,84.0,66.1,29.85,North,351,2.0,2.0,55,0.00,,,0.00,Wunderground v.1.15,2013-06-02 22:40:00,
2013-06-02 18:50:00,83.7,67.4,29.85,SE,141,2.0,2.0,58,0.00,,,0.00,Wunderground v.1.15,2013-06-02 22:50:00,
2013-06-02 19:01:00,83.2,67.4,29.85,SW,234,2.0,2.0,59,0.00,,,0.00,Wunderground v.1.15,2013-06-02 23:01:00,
2013-06-02 19:10:00,82.8,68.0,29.85,South,176,2.0,2.0,61,0.00,,,0.00,Wunderground v.1.15,2013-06-02 23:10:00,
2013-06-02 19:20:00,82.3,67.5,29.85,East,97,2.0,2.0,61,0.00,,,0.00,Wunderground v.1.15,2013-06-02 23:20:00,
2013-06-02 19:30:00,81.8,68.0,29.84,WSW,257,2.0,3.0,63,0.00,,,0.00,Wunderground v.1.15,2013-06-02 23:30:00,
2013-06-02 19:40:00,80.9,67.6,29.85,West,269,3.0,3.0,64,0.00,,,0.00,Wunderground v.1.15,2013-06-02 23:40:00,
2013-06-02 19:50:00,80.4,68.0,29.85,ENE,75,2.0,2.0,66,0.00,,,0.00,Wunderground v.1.15,2013-06-02 23:50:00,
2013-06-02 20:01:00,80.0,67.6,29.85,SE,141,1.0,2.0,66,0.00,,,0.00,Wunderground v.1.15,2013-06-03 00:01:00,
2013-06-02 20:10:00,79.7,67.3,29.85,SE,138,1.0,1.0,66,0.00,,,0.00,Wunderground v.1.15,2013-06-03 00:10:00,
2013-06-02 20:20:00,79.5,66.7,29.85,East,94,1.0,1.0,65,0.00,,,0.00,Wunderground v.1.15,2013-06-03 00:20:00,
2013-06-02 20:30:00,79.1,66.8,29.86,West,276,1.0,1.0,66,0.00,,,0.00,Wunderground v.1.15,2013-06-03 00:30:00,
2013-06-02 20:40:00,78.8,66.5,29.86,WNW,291,0.0,0.0,66,0.00,,,0.00,Wunderground v.1.15,2013-06-03 00:40:00,
2013-06-02 20:50:00,78.5,66.6,29.86,West,264,1.0,1.0,67,0.00,,,0.00,Wunderground v.1.15,2013-06-03 00:50:00,
2013-06-02 21:01:00,78.3,66.4,29.86,SSE,167,1.0,4.0,67,0.00,,,0.00,Wunderground v.1.15,2013-06-03 01:01:00,
2013-06-02 21:10:00,78.1,66.7,29.87,SW,223,1.0,1.0,68,0.00,,,0.00,Wunderground v.1.15,2013-06-03 01:10:00,
2013-06-02 21:20:00,78.1,66.7,29.87,NE,44,1.0,2.0,68,0.00,,,0.00,Wunderground v.1.15,2013-06-03 01:20:00,
2013-06-02 21:30:00,78.1,66.7,29.88,WNW,284,2.0,2.0,68,0.00,,,0.00,Wunderground v.1.15,2013-06-03 01:30:00,
2013-06-02 21:40:00,78.2,66.8,29.89,SSW,200,1.0,2.0,68,0.00,,,0.00,Wunderground v.1.15,2013-06-03 01:40:00,
2013-06-02 21:50:00,78.0,67.0,29.89,WSW,240,1.0,1.0,69,0.00,,,0.00,Wunderground v.1.15,2013-06-03 01:50:00,
2013-06-02 22:01:00,77.7,68.0,29.90,WNW,303,1.0,1.0,72,0.00,,,0.00,Wunderground v.1.15,2013-06-03 02:01:00,
2013-06-02 22:10:00,77.0,68.9,29.90,WSW,243,1.0,1.0,76,0.00,,,0.00,Wunderground v.1.15,2013-06-03 02:10:00,
2013-06-02 22:20:00,75.6,69.0,29.91,WNW,285,2.0,4.0,80,0.00,,,0.00,Wunderground v.1.15,2013-06-03 02:20:00,
2013-06-02 22:30:00,73.5,69.4,29.90,WNW,302,3.0,3.0,87,0.13,,,0.02,Wunderground v.1.15,2013-06-03 02:30:00,
2013-06-02 22:40:00,72.6,69.2,29.91,WSW,255,2.0,5.0,89,0.08,,,0.04,Wunderground v.1.15,2013-06-03 02:40:00,
2013-06-02 22:50:00,72.0,68.9,29.92,WSW,257,4.0,4.0,90,0.26,,,0.07,Wunderground v.1.15,2013-06-03 02:50:00,
2013-06-02 23:01:00,71.4,69.0,29.91,NW,319,3.0,3.0,92,0.27,,,0.10,Wunderground v.1.15,2013-06-03 03:01:00,
2013-06-02 23:10:00,71.1,68.3,29.91,WSW,240,3.0,4.0,91,0.31,,,0.15,Wunderground v.1.15,2013-06-03 03:10:00,
2013-06-02 23:20:00,70.7,67.9,29.90,NW,321,4.0,4.0,91,0.10,,,0.16,Wunderground v.1.15,2013-06-03 03:20:00,
2013-06-02 23:30:00,70.5,68.1,29.90,WNW,296,3.0,3.0,92,0.16,,,0.18,Wunderground v.1.15,2013-06-03 03:30:00,
2013-06-02 23:40:00,70.3,67.5,29.89,WSW,252,3.0,3.0,91,0.12,,,0.21,Wunderground v.1.15,2013-06-03 03:40:00,
2013-06-02 23:50:00,70.2,67.4,29.89,West,267,2.0,2.0,91,0.09,,,0.22,Wunderground v.1.15,2013-06-03 03:50:00,